Le nostre stazioni meteo in Italia

Pubblicità
Il mio iltempo24.it
Bari Palese, Italia (16270): Temperatura & dewpoint: 07.11.2019 00:00:00 - 13.11.2019 00:00:00 (CET)Bari Palese, Italia (16270): velocità del vento: 07.11.2019 00:00:00 - 13.11.2019 00:00:00 (CET)Bari Palese, Italia (16270): direzione del vento: 07.11.2019 00:00:00 - 13.11.2019 00:00:00 (CET)Bari Palese, Italia (16270): reduced air pressure: 07.11.2019 00:00:00 - 13.11.2019 00:00:00 (CET)Bari Palese, Italia (16270): visibility: 07.11.2019 00:00:00 - 13.11.2019 00:00:00 (CET)Bari Palese, Italia (16270): precipitazioni: 07.11.2019 00:00:00 - 13.11.2019 00:00:00 (CET)
Data & Tempo tt [°C] td [°C] ff [km/h] ff [kn] dd ppp [hPa] vv [km] rr [mm]
13.11.2019 00:00:00 - - - - - - - -
12.11.2019 23:00:00 - - - - - - - -
12.11.2019 22:00:00 15,8 10,9 16 9 SSE 998,7 11 0,0
12.11.2019 21:00:00 - - - - - - - -
12.11.2019 20:00:00 - - - - - - - -
12.11.2019 19:00:00 16,5 10,7 16 9 SSE 999,5 16 -
12.11.2019 18:00:00 - - - - - - - -
12.11.2019 17:00:00 - - - - - - - -
12.11.2019 16:00:00 18,4 9,9 21 11 S 997,8 11 0,0
12.11.2019 15:00:00 - - - - - - - -
12.11.2019 14:00:00 - - - - - - - -
12.11.2019 13:00:00 19,3 12,5 26 14 S 996,7 11 -
12.11.2019 12:00:00 - - - - - - - -
12.11.2019 11:00:00 - - - - - - - -
12.11.2019 10:00:00 19,4 15,8 24 13 SSE 995,5 7 0,0
12.11.2019 09:00:00 - - - - - - - -
12.11.2019 08:00:00 - - - - - - - -
12.11.2019 07:00:00 15,9 15,3 13 7 ESE 999,8 6 -
12.11.2019 06:00:00 - - - - - - - -
12.11.2019 05:00:00 - - - - - - - -
12.11.2019 04:00:00 16,1 14,4 26 14 SSE 1001,6 8 0,0
12.11.2019 03:00:00 - - - - - - - -
12.11.2019 02:00:00 - - - - - - - -
12.11.2019 01:00:00 16,0 12,9 9 5 SSE 1007,3 20 -
12.11.2019 00:00:00 - - - - - - - -
11.11.2019 23:00:00 - - - - - - - -
11.11.2019 22:00:00 16,5 11,8 11 6 SE 1009,1 11 0,0
11.11.2019 21:00:00 - - - - - - - -
11.11.2019 20:00:00 - - - - - - - -
11.11.2019 19:00:00 17,0 12,8 8 4 SSE 1010,6 11 -
11.11.2019 18:00:00 - - - - - - - -
11.11.2019 17:00:00 - - - - - - - -
11.11.2019 16:00:00 18,9 9,9 13 7 SSE 1011,0 11 0,0
11.11.2019 15:00:00 - - - - - - - -
11.11.2019 14:00:00 - - - - - - - -
11.11.2019 13:00:00 20,4 10,1 13 7 S 1012,3 25 -
11.11.2019 12:00:00 - - - - - - - -
11.11.2019 11:00:00 - - - - - - - -
11.11.2019 10:00:00 17,4 11,6 5 3 ESE 1014,3 20 0,0
11.11.2019 09:00:00 - - - - - - - -
11.11.2019 08:00:00 - - - - - - - -
11.11.2019 07:00:00 9,2 8,3 8 4 SSO 1014,3 25 -
11.11.2019 06:00:00 - - - - - - - -
11.11.2019 05:00:00 - - - - - - - -
11.11.2019 04:00:00 9,3 7,9 4 2 SSO 1014,3 - 0,0
11.11.2019 03:00:00 - - - - - - - -
11.11.2019 02:00:00 - - - - - - - -
11.11.2019 01:00:00 10,3 7,8 5 3 SSO 1014,7 16 -
11.11.2019 00:00:00 - - - - - - - -
10.11.2019 23:00:00 - - - - - - - -
10.11.2019 22:00:00 12,1 9,6 9 5 SSO 1014,3 25 0,0
10.11.2019 21:00:00 - - - - - - - -
10.11.2019 20:00:00 - - - - - - - -
10.11.2019 19:00:00 13,9 9,7 5 3 SSE 1013,3 25 -
10.11.2019 18:00:00 - - - - - - - -
10.11.2019 17:00:00 - - - - - - - -
10.11.2019 16:00:00 16,2 9,1 13 7 E 1011,4 30 0,0
10.11.2019 15:00:00 - - - - - - - -
10.11.2019 14:00:00 - - - - - - - -
10.11.2019 13:00:00 16,9 7,5 13 7 NNE 1010,1 30 -
10.11.2019 12:00:00 - - - - - - - -
10.11.2019 11:00:00 - - - - - - - -
10.11.2019 10:00:00 16,4 6,9 15 8 O 1009,5 11 0,0
10.11.2019 09:00:00 - - - - - - - -
10.11.2019 08:00:00 - - - - - - - -
10.11.2019 07:00:00 10,2 8,3 9 5 SO 1008,2 15 -
10.11.2019 06:00:00 - - - - - - - -
10.11.2019 05:00:00 - - - - - - - -
10.11.2019 04:00:00 10,3 8,3 13 7 SO 1007,5 20 0,0
10.11.2019 03:00:00 - - - - - - - -
10.11.2019 02:00:00 - - - - - - - -
10.11.2019 01:00:00 10,6 9,3 11 6 SO 1006,8 - -
10.11.2019 00:00:00 - - - - - - - -
09.11.2019 23:00:00 - - - - - - - -
09.11.2019 22:00:00 12,5 11,4 11 6 OSO 1008,6 14 0,0
09.11.2019 21:00:00 - - - - - - - -
09.11.2019 20:00:00 - - - - - - - -
09.11.2019 19:00:00 14,1 12,0 15 8 ONO 1009,6 6 -
09.11.2019 18:00:00 - - - - - - - -
09.11.2019 17:00:00 - - - - - - - -
09.11.2019 16:00:00 17,9 12,3 5 3 ENE 1008,8 8 0,0
09.11.2019 15:00:00 - - - - - - - -
09.11.2019 14:00:00 - - - - - - - -
09.11.2019 13:00:00 22,0 8,1 13 7 SSO 1009,9 20 -
09.11.2019 12:00:00 - - - - - - - -
09.11.2019 11:00:00 - - - - - - - -
09.11.2019 10:00:00 18,4 11,0 9 5 SSO 1011,1 15 0,0
09.11.2019 09:00:00 - - - - - - - -
09.11.2019 08:00:00 - - - - - - - -
09.11.2019 07:00:00 14,3 8,9 11 6 SSO 1010,3 25 -
09.11.2019 06:00:00 - - - - - - - -
09.11.2019 05:00:00 - - - - - - - -
09.11.2019 04:00:00 13,4 8,9 9 5 SSO 1010,3 - 0,0
09.11.2019 03:00:00 - - - - - - - -
09.11.2019 02:00:00 - - - - - - - -
09.11.2019 01:00:00 15,0 8,2 9 5 SSO 1010,7 20 -
09.11.2019 00:00:00 - - - - - - - -
08.11.2019 23:00:00 - - - - - - - -
08.11.2019 22:00:00 16,8 8,3 13 7 SSO 1010,2 20 0,0
08.11.2019 21:00:00 - - - - - - - -
08.11.2019 20:00:00 - - - - - - - -
08.11.2019 19:00:00 18,0 9,9 11 6 S 1009,6 20 -
08.11.2019 18:00:00 - - - - - - - -
08.11.2019 17:00:00 - - - - - - - -
08.11.2019 16:00:00 20,5 10,2 15 8 SSO 1008,7 20 0,0
08.11.2019 15:00:00 - - - - - - - -
08.11.2019 14:00:00 - - - - - - - -
08.11.2019 13:00:00 21,6 6,9 13 7 SSO 1008,7 30 -
08.11.2019 12:00:00 - - - - - - - -
08.11.2019 11:00:00 - - - - - - - -
08.11.2019 10:00:00 18,3 7,3 8 4 SSO 1009,4 30 0,0
08.11.2019 09:00:00 - - - - - - - -
08.11.2019 08:00:00 - - - - - - - -
08.11.2019 07:00:00 10,2 6,5 9 5 SO 1008,7 25 -
08.11.2019 06:00:00 - - - - - - - -
08.11.2019 05:00:00 - - - - - - - -
08.11.2019 04:00:00 11,0 9,2 11 6 OSO 1007,8 11 0,0
08.11.2019 03:00:00 - - - - - - - -
08.11.2019 02:00:00 - - - - - - - -
08.11.2019 01:00:00 12,0 10,0 11 6 ONO 1008,3 11 -
08.11.2019 00:00:00 - - - - - - - -
07.11.2019 23:00:00 - - - - - - - -
07.11.2019 22:00:00 14,3 11,5 13 7 O 1008,8 20 0,0
07.11.2019 21:00:00 - - - - - - - -
07.11.2019 20:00:00 - - - - - - - -
07.11.2019 19:00:00 14,7 12,7 9 5 O 1008,6 25 -
07.11.2019 18:00:00 - - - - - - - -
07.11.2019 17:00:00 - - - - - - - -
07.11.2019 16:00:00 17,5 12,1 5 3 NNE 1008,3 30 0,0
07.11.2019 15:00:00 - - - - - - - -
07.11.2019 14:00:00 - - - - - - - -
07.11.2019 13:00:00 18,9 9,0 8 4 NNO 1008,5 25 -
07.11.2019 12:00:00 - - - - - - - -
07.11.2019 11:00:00 - - - - - - - -
07.11.2019 10:00:00 18,0 10,9 9 5 NO 1008,7 - 0,0
07.11.2019 09:00:00 - - - - - - - -
07.11.2019 08:00:00 - - - - - - - -
07.11.2019 07:00:00 13,0 11,3 11 6 SO 1007,5 20 -
07.11.2019 06:00:00 - - - - - - - -
07.11.2019 05:00:00 - - - - - - - -
07.11.2019 04:00:00 14,0 11,8 9 5 OSO 1007,8 15 0,0
07.11.2019 03:00:00 - - - - - - - -
07.11.2019 02:00:00 - - - - - - - -
07.11.2019 01:00:00 14,1 12,3 9 5 SSO 1007,6 15 -
07.11.2019 00:00:00 - - - - - - - -

tt = Temperatura
td = dewpoint
ff = velocità del vento
dd = direzione del vento
ppp = reduced air pressure
vv = visibility
rr = precipitazioni

Stazioni seguenti

WeatherPro
AMSI
MeteoEarth